AMC-3

Last updated on Mon Jul 07 2025 00:02:42 GMT+0000 (Coordinated Universal Time)

1 24936U 97050A 25187.54987156 -.00000252 00000+0 00000+0 0 9991 2 24936 7.2972 68.0043 0003000 32.2768 310.4302 1.00271757 48965
UTC large
Height (km)
Speed (km/s)
/
Latitude / Longitude
Inclination (degrees)
Orbital Period (minutes)
Azimuth
Elevation
Range (km)
Doppler Factor

Next 0 passes for location: London (51.5072 / 0.1276)

Sorry there are no passes over London.